Terug naar catalogus

COSMOS 2499 DEB

ActiefPO
NORAD 55727·DEBRIS·🇷🇺 Russia

Gelanceerd May 23, 2014 vanaf Plesetsk Cosmodrome

Loading…

Volgende Passages (komende 24 uur)

TLE

VersSource: Space-Track

Epoch: Sep 13, 2026, 11:54 UTC

1 55727U 14028AP  26256.49618083 -.00000013  00000-0 -96834-4 0  9991
2 55727  82.2411 173.8721 0185909 193.9220 165.6716 12.79590221170786

Volg COSMOS 2499 DEB in realtime met AllMySat

Download on the App Store